Weather History for KBOW - May, 2014

Change the Weather History Date:

Wednesday, May 14, 2014

  Actual Average Record
Temperature  
Mean Temperature 79 °F -  
Max Temperature 87 °F 89 °F 100 °F (1967)
Min Temperature 71 °F 65 °F 49 °F (1960)
Cooling Degree Days 14    
Growing Degree Days 29 (Base 50)    
Moisture  
Dew Point 70 °F    
Average Humidity 80    
Maximum Humidity 100    
Minimum Humidity 52    
Precipitation  
Precipitation 0.00 in - - ()
Sea Level Pressure  
Sea Level Pressure 30.03 in    
Wind  
Wind Speed 8 mph (East)    
Max Wind Speed 18 mph    
Max Gust Speed 24 mph    
Visibility 10 miles    
Events      
Averages and records for this station are not official NWS values.
T = Trace of Precipitation, MM = Missing Value Source: NWS Daily Summary

Daily Weather History Graph

Daily Weather History Graph

Search for Another Location

Airport or City:

Trip Planner

Search our weather history database for the weather conditions in past years. The results will help you decide how hot, cold, wet, or windy it might be!

Date:

Astronomy

May. 14, 2014 Rise Set
Actual Time 6:38 AM EDT 8:09 PM EDT
Civil Twilight 6:12 AM EDT 8:34 PM EDT
Nautical Twilight 5:42 AM EDT 9:05 PM EDT
Astronomical Twilight 5:10 AM EDT 9:37 PM EDT
Moon 8:15 PM EDT (5/14) 6:31 AM EDT (5/14)
Length of Visible Light 14h 21m
Length of Day
13h 31m
Full, 100% of the Moon is Illuminated
May 14
Full
May 14
Full
May 21
Last Quarter
May 28
New
Jun 5
First Quarter

Hourly Weather History & Observations

Time (EDT) Temp. Heat Index Dew Point Humidity Pressure Visibility Wind Dir Wind Speed Gust Speed Precip Events Conditions
12:15 AM 73.4 °F - 73.4 °F 100% 30.08 in 10.0 mi East 8.1 mph - N/A   Partly Cloudy
12:35 AM 73.4 °F - 73.4 °F 100% 30.08 in 10.0 mi ENE 8.1 mph - N/A   Scattered Clouds
12:55 AM 73.4 °F - 73.4 °F 100% 30.08 in 10.0 mi East 8.1 mph - N/A   Mostly Cloudy
1:15 AM 73.4 °F - 73.4 °F 100% 30.07 in 10.0 mi East 8.1 mph - N/A   Mostly Cloudy
1:35 AM 73.4 °F - 73.4 °F 100% 30.07 in 10.0 mi East 5.8 mph - N/A   Scattered Clouds
1:55 AM 73.4 °F - 73.4 °F 100% 30.06 in 10.0 mi ENE 5.8 mph - N/A   Scattered Clouds
2:15 AM 73.4 °F - 73.4 °F 100% 30.06 in 10.0 mi ENE 4.6 mph - N/A   Clear
2:35 AM 71.6 °F - 71.6 °F 100% 30.06 in 10.0 mi ENE 4.6 mph - N/A   Clear
2:55 AM 71.6 °F - 71.6 °F 100% 30.05 in 10.0 mi ENE 6.9 mph - N/A   Clear
3:15 AM 71.6 °F - 71.6 °F 100% 30.04 in 10.0 mi ENE 6.9 mph - N/A   Clear
3:35 AM 71.6 °F - - N/A% 30.04 in 10.0 mi ENE 5.8 mph - N/A   Clear
3:55 AM 71.6 °F - - N/A% 30.04 in 10.0 mi ENE 5.8 mph - N/A   Clear
4:15 AM 71.6 °F - - N/A% 30.04 in 10.0 mi ENE 6.9 mph - N/A   Clear
4:35 AM 71.6 °F - - N/A% 30.04 in 10.0 mi ENE 6.9 mph - N/A   Clear
4:55 AM 71.6 °F - - N/A% 30.04 in 10.0 mi ENE 5.8 mph - N/A   Clear
5:15 AM 71.6 °F - - N/A% 30.04 in 10.0 mi East 6.9 mph - N/A   Clear
5:35 AM 71.6 °F - - N/A% 30.04 in 10.0 mi ENE 4.6 mph - N/A   Clear
5:55 AM 71.6 °F - - N/A% 30.04 in 10.0 mi ENE 4.6 mph - N/A   Clear
6:15 AM 71.6 °F - - N/A% 30.04 in 10.0 mi East 3.5 mph - N/A   Clear
6:35 AM 71.6 °F - - N/A% 30.04 in 9.0 mi East 4.6 mph - N/A   Partly Cloudy
6:55 AM 71.6 °F - - N/A% 30.05 in 10.0 mi ENE 4.6 mph - N/A   Partly Cloudy
7:15 AM 71.6 °F - - N/A% 30.06 in 10.0 mi East 3.5 mph - N/A   Clear
7:50 AM 73.4 °F - - N/A% 30.07 in 7.0 mi East 6.9 mph - N/A   Scattered Clouds
8:50 AM 77.0 °F - 73.4 °F 89% 30.08 in 10.0 mi East 10.4 mph - N/A   Mostly Cloudy
9:56 AM 80.6 °F 83.9 °F 69.8 °F 70% 30.07 in 10.0 mi SE 11.5 mph - N/A   Scattered Clouds
11:50 AM 84.2 °F 88.4 °F 69.8 °F 62% 30.07 in 10.0 mi ESE 12.7 mph 18.4 mph N/A   Mostly Cloudy
12:50 PM 87.8 °F 92.6 °F 69.8 °F 55% 30.04 in 10.0 mi SE 12.7 mph 20.7 mph N/A   Scattered Clouds
1:55 PM 87.8 °F 92.6 °F 69.8 °F 55% 30.01 in 10.0 mi East 15.0 mph 18.4 mph N/A   Mostly Cloudy
2:50 PM 84.2 °F 89.6 °F 71.6 °F 66% 30.00 in 10.0 mi East 17.3 mph 23.0 mph N/A   Mostly Cloudy
3:47 PM 86.0 °F 90.4 °F 69.8 °F 58% 29.98 in 10.0 mi East 17.3 mph 23.0 mph N/A   Mostly Cloudy
4:47 PM 87.8 °F 91.4 °F 68.0 °F 52% 29.96 in 10.0 mi East 18.4 mph 24.2 mph N/A   Mostly Cloudy
5:35 PM 84.2 °F 87.3 °F 68.0 °F 58% 29.95 in 10.0 mi East 15.0 mph 23.0 mph N/A   Partly Cloudy
5:55 PM 84.2 °F 86.6 °F 66.2 °F 55% 29.95 in 10.0 mi East 12.7 mph 20.7 mph N/A   Partly Cloudy
6:15 PM 84.2 °F 86.6 °F 66.2 °F 55% 29.96 in 10.0 mi ESE 11.5 mph - N/A   Partly Cloudy
6:35 PM 80.6 °F 82.7 °F 66.2 °F 61% 29.96 in 10.0 mi ESE 16.1 mph 19.6 mph N/A   Partly Cloudy
6:55 PM 80.6 °F 83.9 °F 69.8 °F 70% 29.97 in 10.0 mi ESE 11.5 mph - N/A   Clear
7:15 PM 80.6 °F 83.9 °F 69.8 °F 70% 29.97 in 10.0 mi East 10.4 mph - N/A   Partly Cloudy
7:35 PM 80.6 °F 84.6 °F 71.6 °F 74% 29.98 in 10.0 mi ESE 11.5 mph - N/A   Clear
7:55 PM 80.6 °F 83.9 °F 69.8 °F 70% 29.99 in 10.0 mi East 8.1 mph - N/A   Partly Cloudy
8:15 PM 78.8 °F - 69.8 °F 74% 30.01 in 10.0 mi SW 10.4 mph - N/A   Mostly Cloudy
8:35 PM 77.0 °F - 69.8 °F 78% 30.01 in 10.0 mi South 8.1 mph - N/A   Mostly Cloudy
8:55 PM 75.2 °F - 69.8 °F 83% 30.02 in 10.0 mi South 5.8 mph - N/A   Partly Cloudy
9:15 PM 75.2 °F - 69.8 °F 83% 30.02 in 10.0 mi South 4.6 mph - N/A   Partly Cloudy
9:55 PM 73.4 °F - 69.8 °F 88% 30.03 in 10.0 mi SSE 5.8 mph - N/A   Clear
10:15 PM 73.4 °F - 69.8 °F 88% 30.04 in 10.0 mi SE 4.6 mph - N/A   Clear
10:35 PM 73.4 °F - 69.8 °F 88% 30.04 in 10.0 mi ESE 3.5 mph - N/A   Mostly Cloudy
11:15 PM 73.4 °F - 69.8 °F 88% 30.04 in 10.0 mi East 4.6 mph - N/A   Partly Cloudy
11:35 PM 73.4 °F - 69.8 °F 88% 30.04 in 10.0 mi East 5.8 mph - N/A   Clear
11:55 PM 71.6 °F - 69.8 °F 94% 30.03 in 10.0 mi ESE 4.6 mph - N/A   Clear